Waarnemingen

Advertentie
Mijn weer
Muret-Lherm, Frankrijk (7628): temperatuur & dauwpunt: 27.05.2020 11:00:00 - 02.06.2020 11:00:00 (CEST)Muret-Lherm, Frankrijk (7628): windsnelheid & windstoten: 27.05.2020 11:00:00 - 02.06.2020 11:00:00 (CEST)Muret-Lherm, Frankrijk (7628): windrichting: 27.05.2020 11:00:00 - 02.06.2020 11:00:00 (CEST)Muret-Lherm, Frankrijk (7628): luchtdruk: 27.05.2020 11:00:00 - 02.06.2020 11:00:00 (CEST)Muret-Lherm, Frankrijk (7628): zicht: 27.05.2020 11:00:00 - 02.06.2020 11:00:00 (CEST)Muret-Lherm, Frankrijk (7628): neerslag: 27.05.2020 11:00:00 - 02.06.2020 11:00:00 (CEST)
Datum & Tijd tt [°C] td [°C] ff [km/u] ff [kn] fx [km/u] fx [kn] dd ppp [hPa] vv [km] rr [mm]
02.06.2020 11:00:00 - - - - - - - - - -
02.06.2020 10:00:00 18,2 17,2 0 0 8 4 N 1017,0 19 0,0
02.06.2020 09:00:00 16,6 16,0 5 3 11 6 Z 1016,9 15 0,0
02.06.2020 08:00:00 16,2 15,6 3 2 9 5 ZZO 1016,5 7 0,0
02.06.2020 07:00:00 15,9 15,1 5 3 13 7 Z 1016,4 0,5 0,0
02.06.2020 06:00:00 16,1 15,3 9 5 14 7 ZO 1015,8 0,6 0,0
02.06.2020 05:00:00 15,1 14,3 6 3 13 7 NO 1015,8 0,7 0,0
02.06.2020 04:00:00 14,5 13,5 8 4 10 5 ZZW 1015,9 5 0,0
02.06.2020 03:00:00 14,8 13,7 5 3 8 5 ZZW 1016,1 10 0,0
02.06.2020 02:00:00 16,2 15,1 6 3 13 7 OZO 1016,5 15 0,2
02.06.2020 01:00:00 16,6 15,3 6 3 14 8 NO 1017,3 12 0,0
02.06.2020 00:00:00 17,2 15,5 6 4 21 11 NNO 1017,1 19 0,0
01.06.2020 23:00:00 18,1 16,3 11 6 16 9 OZO 1016,6 20 0,2
01.06.2020 22:00:00 19,0 16,0 9 5 19 10 ONO 1016,2 20 0,0
01.06.2020 21:00:00 19,8 16,1 13 7 21 11 ZO 1014,7 20 0,0
01.06.2020 20:00:00 21,2 16,6 12 6 22 12 OZO 1014,5 20 0,0
01.06.2020 19:00:00 22,4 16,9 10 5 30 16 OZO 1014,6 20 0,0
01.06.2020 18:00:00 23,8 17,8 19 10 34 19 OZO 1013,9 19 0,0
01.06.2020 17:00:00 22,9 16,9 19 10 31 17 OZO 1014,5 20 0,0
01.06.2020 16:00:00 23,1 17,6 16 8 24 13 O 1014,9 20 0,0
01.06.2020 15:00:00 23,0 15,6 13 7 21 11 O 1014,9 20 0,0
01.06.2020 14:00:00 22,0 18,2 13 7 24 13 O 1014,7 19 0,4
01.06.2020 13:00:00 21,3 16,7 14 7 29 15 OZO 1014,6 20 0,0
01.06.2020 12:00:00 21,4 16,4 19 11 28 15 OZO 1014,4 20 0,0
01.06.2020 11:00:00 21,4 16,1 18 10 31 17 OZO 1014,2 20 0,0
01.06.2020 10:00:00 20,6 16,2 19 11 29 16 OZO 1014,3 20 0,0
01.06.2020 09:00:00 19,8 15,6 18 10 27 15 OZO 1014,2 - 0,0
01.06.2020 08:00:00 18,5 15,7 14 8 22 12 OZO 1014,0 - 0,0
01.06.2020 07:00:00 17,0 14,8 10 6 21 11 OZO 1013,8 - 0,0
01.06.2020 06:00:00 17,1 14,9 11 6 22 12 OZO 1013,2 - 0,0
01.06.2020 05:00:00 17,4 15,2 12 6 23 13 ZO 1013,2 - 0,0
01.06.2020 04:00:00 17,2 15,2 10 5 21 11 ZO 1013,1 - 0,0
01.06.2020 03:00:00 17,8 15,6 14 8 30 16 OZO 1013,1 - 0,0
01.06.2020 02:00:00 17,0 15,3 5 3 21 11 OZO 1013,3 - 0,0
01.06.2020 01:00:00 17,1 14,9 11 6 18 10 OZO 1013,3 - 0,0
01.06.2020 00:00:00 17,5 14,8 10 5 28 15 OZO 1013,4 - 0,0
31.05.2020 23:00:00 18,3 15,0 14 7 28 15 OZO 1013,3 - 0,0
31.05.2020 22:00:00 19,2 14,9 19 10 38 21 OZO 1012,9 - 0,0
31.05.2020 21:00:00 20,2 15,0 19 11 37 20 OZO 1012,2 - 0,0
31.05.2020 20:00:00 21,7 15,3 22 12 38 21 OZO 1011,6 - 0,0
31.05.2020 19:00:00 23,4 15,7 20 11 36 19 OZO 1011,1 - 0,0
31.05.2020 18:00:00 24,2 15,4 23 12 40 21 OZO 1011,0 - 0,0
31.05.2020 17:00:00 24,4 15,6 26 14 47 26 OZO 1011,3 - 0,0
31.05.2020 16:00:00 25,2 16,6 26 14 43 23 OZO 1011,3 - 0,0
31.05.2020 15:00:00 24,4 15,9 24 13 40 22 OZO 1011,7 - 0,0
31.05.2020 14:00:00 24,4 16,1 23 12 40 22 OZO 1012,0 - 0,0
31.05.2020 13:00:00 24,0 16,3 21 11 35 19 O 1012,4 - 0,0
31.05.2020 12:00:00 22,6 15,9 21 11 35 19 OZO 1012,7 - 0,0
31.05.2020 11:00:00 21,3 15,2 22 12 35 19 ZO 1012,9 - 0,0
31.05.2020 10:00:00 - - - - - - - - - -
31.05.2020 09:00:00 - - - - - - - - - -
31.05.2020 08:00:00 - - - - - - - - - -
31.05.2020 07:00:00 - - - - - - - - - -
31.05.2020 06:00:00 - - - - - - - - - -
31.05.2020 05:00:00 - - - - - - - - - -
31.05.2020 04:00:00 - - - - - - - - - -
31.05.2020 03:00:00 - - - - - - - - - -
31.05.2020 02:00:00 - - - - - - - - - -
31.05.2020 01:00:00 - - - - - - - - - -
31.05.2020 00:00:00 - - - - - - - - - -
30.05.2020 23:00:00 - - - - - - - - - -
30.05.2020 22:00:00 - - - - - - - - - -
30.05.2020 21:00:00 - - - - - - - - - -
30.05.2020 20:00:00 - - - - - - - - - -
30.05.2020 19:00:00 - - - - - - - - - -
30.05.2020 18:00:00 - - - - - - - - - -
30.05.2020 17:00:00 - - - - - - - - - -
30.05.2020 16:00:00 - - - - - - - - - -
30.05.2020 15:00:00 - - - - - - - - - -
30.05.2020 14:00:00 - - - - - - - - - -
30.05.2020 13:00:00 - - - - - - - - - -
30.05.2020 12:00:00 - - - - - - - - - -
30.05.2020 11:00:00 - - - - - - - - - -
30.05.2020 10:00:00 - - - - - - - - - -
30.05.2020 09:00:00 - - - - - - - - - -
30.05.2020 08:00:00 17,5 14,4 10 6 20 11 ZO 1015,6 19 0,0
30.05.2020 07:00:00 15,7 13,5 5 3 18 10 OZO 1015,9 19 0,0
30.05.2020 06:00:00 15,3 12,8 5 3 19 10 OZO 1015,7 17 0,0
30.05.2020 05:00:00 16,0 13,5 8 4 19 10 OZO 1015,8 20 0,0
30.05.2020 04:00:00 16,4 13,5 6 3 28 15 OZO 1015,7 20 0,0
30.05.2020 03:00:00 16,9 14,0 11 6 27 15 OZO 1015,9 20 0,0
30.05.2020 02:00:00 17,1 13,8 16 8 26 14 ZO 1016,1 20 0,0
30.05.2020 01:00:00 17,2 13,3 12 7 24 13 ZO 1016,1 20 0,0
30.05.2020 00:00:00 17,8 12,5 11 6 35 19 ZZO 1015,8 20 0,0
29.05.2020 23:00:00 18,9 12,4 20 11 34 19 ZO 1015,6 20 0,0
29.05.2020 22:00:00 20,4 11,3 20 11 39 21 OZO 1015,0 20 0,0
29.05.2020 21:00:00 22,7 11,1 20 11 32 17 OZO 1014,3 20 0,0
29.05.2020 20:00:00 26,8 11,7 9 5 16 9 N 1013,1 20 0,0
29.05.2020 19:00:00 27,5 11,5 10 5 21 11 NNO 1012,8 20 0,0
29.05.2020 18:00:00 27,8 13,0 10 6 22 12 N 1013,2 20 0,0
29.05.2020 17:00:00 28,3 12,2 8 5 21 11 N 1013,4 19 0,0
29.05.2020 16:00:00 28,7 13,4 4 2 22 12 ONO 1013,8 19 0,0
29.05.2020 15:00:00 27,4 12,6 12 6 28 15 NNW 1014,3 20 0,0
29.05.2020 14:00:00 27,5 13,4 9 5 19 10 NNO 1014,7 19 0,0
29.05.2020 13:00:00 27,5 12,7 7 4 16 9 WNW 1015,1 19 0,0
29.05.2020 12:00:00 26,3 14,1 4 2 13 7 ZZO 1015,7 19 0,0
29.05.2020 11:00:00 25,5 15,5 3 2 8 4 O 1016,2 19 0,0
29.05.2020 10:00:00 21,8 14,2 5 3 13 7 Z 1016,8 19 0,0
29.05.2020 09:00:00 18,6 13,7 9 5 15 8 ZZW 1017,4 19 0,0
29.05.2020 08:00:00 15,4 13,4 8 5 14 7 Z 1017,8 19 0,2
29.05.2020 07:00:00 13,0 11,7 8 4 11 6 Z 1018,2 19 0,0
29.05.2020 06:00:00 12,6 11,0 8 4 14 8 ZW 1018,1 19 0,0
29.05.2020 05:00:00 13,0 11,4 9 5 16 9 ZZO 1018,3 19 0,0
29.05.2020 04:00:00 13,7 11,9 7 4 11 6 Z 1018,4 20 0,0
29.05.2020 03:00:00 14,5 12,5 10 5 14 7 Z 1018,7 20 0,0
29.05.2020 02:00:00 14,8 12,7 8 4 14 8 ZZW 1019,2 20 0,0
29.05.2020 01:00:00 15,3 12,2 8 4 10 5 Z 1019,6 20 0,0
29.05.2020 00:00:00 16,5 12,6 5 3 6 3 Z 1019,8 20 0,0
28.05.2020 23:00:00 17,4 12,5 5 3 6 3 W 1020,1 20 0,0
28.05.2020 22:00:00 20,5 12,7 0 0 8 4 N 1019,7 15 0,0
28.05.2020 21:00:00 24,4 12,0 7 4 16 9 N 1019,3 20 0,0
28.05.2020 20:00:00 26,9 11,8 5 3 12 6 O 1019,3 19 0,0
28.05.2020 19:00:00 27,4 11,4 9 5 23 12 ONO 1019,4 18 0,0
28.05.2020 18:00:00 27,9 12,7 6 4 20 11 ONO 1019,9 19 0,0
28.05.2020 17:00:00 27,8 13,0 7 4 21 12 O 1020,4 19 0,0
28.05.2020 16:00:00 27,2 12,4 13 7 27 14 O 1021,3 20 0,0
28.05.2020 15:00:00 26,7 14,5 11 6 21 11 O 1022,0 20 0,0
28.05.2020 14:00:00 25,7 16,0 13 7 32 17 O 1022,7 19 0,0
28.05.2020 13:00:00 24,9 16,3 12 6 22 12 OZO 1023,3 19 0,0
28.05.2020 12:00:00 23,1 15,7 10 5 21 11 OZO 1024,1 19 0,0
28.05.2020 11:00:00 21,7 15,8 10 5 24 13 O 1024,7 18 0,0
28.05.2020 10:00:00 19,8 15,0 15 8 25 14 OZO 1025,4 20 0,0
28.05.2020 09:00:00 17,5 14,9 12 6 18 10 ZO 1025,7 18 0,0
28.05.2020 08:00:00 16,5 14,7 5 3 11 6 OZO 1025,7 17 0,0
28.05.2020 07:00:00 14,7 13,6 8 4 14 8 O 1026,0 16 0,0
28.05.2020 06:00:00 14,3 13,0 4 2 8 4 O 1025,9 19 0,0
28.05.2020 05:00:00 14,0 12,4 2 1 9 5 ONO 1026,0 19 -
28.05.2020 04:00:00 14,5 12,4 6 3 12 7 O 1026,1 20 0,0
28.05.2020 03:00:00 15,4 12,2 6 3 13 7 OZO 1026,1 20 0,0
28.05.2020 02:00:00 16,4 12,2 8 4 16 8 OZO 1026,4 20 0,0
28.05.2020 01:00:00 16,4 11,5 5 3 16 8 ZZO 1026,8 20 0,0
28.05.2020 00:00:00 17,7 11,0 12 6 25 13 ZO 1026,7 20 0,0
27.05.2020 23:00:00 18,3 11,8 14 7 23 12 ZO 1026,5 20 0,0
27.05.2020 22:00:00 19,4 11,4 11 6 30 16 ZO 1026,0 20 0,0
27.05.2020 21:00:00 21,6 11,3 17 9 33 18 OZO 1025,6 20 0,0
27.05.2020 20:00:00 23,8 12,7 20 11 32 17 OZO 1025,0 20 0,0
27.05.2020 19:00:00 25,4 13,6 18 10 31 17 OZO 1024,7 20 0,0
27.05.2020 18:00:00 26,3 13,8 17 9 27 15 OZO 1024,7 20 0,0
27.05.2020 17:00:00 26,8 12,8 15 8 29 16 O 1024,9 20 0,0
27.05.2020 16:00:00 27,1 13,4 11 6 24 13 O 1025,0 20 0,0
27.05.2020 15:00:00 26,8 14,5 9 5 21 11 NO 1025,3 19 0,0
27.05.2020 14:00:00 26,2 14,3 7 4 26 14 O 1025,7 20 0,0
27.05.2020 13:00:00 25,3 14,1 5 3 12 7 ONO 1026,2 20 0,0
27.05.2020 12:00:00 24,5 16,2 6 3 10 6 OZO 1026,2 20 0,0
27.05.2020 11:00:00 22,6 14,9 4 2 11 6 ZW 1026,5 19 0,0

tt = temperatuur
td = dauwpunt
ff = windsnelheid
fx = windstoten
dd = windrichting
ppp = luchtdruk
vv = zicht
rr = neerslag

Weerstations in de omgeving